GAOFEN 1-02

导读 | 星芒AI

高分一号02星是中国高分辨率对地观测系统的重要组成部分,于2013年发射,主要用于国土普查、环境监测、农业评估等领域。该卫星具备高分辨率、多光谱成像能力,空间分辨率达1米,搭载多台高精度遥感仪器,可提供高质量的遥感数据。高分一号02星的运行提升了中国自主遥感数据获取能力,为国家资源管理、灾害预警和城市规划等提供了有力支持。

基本信息
目录编号:
43259
目录名称:
GAOFEN 1-02
国际标识:
2018-031A
轨道中心:
EARTH
卫星名称:
GAOFEN 1-02
卫星全名:
--
卫星状态:
在轨 (已飞行2769 天)
发射日期:
2018-03-31 UTC
国别 :
中国 (CN)
星等 :
--
轨道信息
数据来源 国际轨道数据
星历时间: 2025-10-28T23:45:56+0800
15小时前
查看轨道信息
半长轴: 7018.734km
偏心率: 0.0003279
轨道倾角: 98.087°
近地点辐角 46.383°
升交点赤经 359.413°
平近点角 313.765°
近地点: 638.297km
远地点: 642.901km
周期: 97.532分钟
每日圈数: 14.764359
详细信息
使用方式:
暂无
2D轨道图
3D轨道图
轨道高度分析图
轨道倾角分析图
轨道综合分析图
查看轨道综合分析图